Location: Mentone
(34.5413°N, 85.5351°W)
Time: 19:57:29
(UTC-05:00)

S-56A Canister/Altair - Visible Passes

Search period start: 05 July 2015 00:00
Search period end: 15 July 2015 00:00
Orbit: 636 x 2499 km, 38.9° (Epoch: 04 July)

Date Brightness Start Highest point End Pass type
(mag) Time Alt. Az. Time Alt. Az. Time Alt. Az.
05 Jul 11.0 20:29:11 10° W 20:39:46 29° SW 20:51:22 10° S visible
08 Jul 11.6 21:03:02 10° WSW 21:06:51 11° SW 21:09:20 10° SW visible
09 Jul 11.6 20:28:11 10° WSW 20:33:55 13° SW 20:38:54 10° SSW visible
